GOES 1 (SMS-C) 1 08366U 75100A 09004.96689408 -.00000115 00000-0 10000-3 0 8147 2 08366 014.4040 349.1321 0005498 262.6750 097.2820 01.00317774121311 GOES 2 1 10061U 77048A 09004.55241512 .00000098 00000-0 10000-3 0 6822 2 10061 014.6230 357.5682 0019732 251.6732 108.1278 00.99394637 60171 GOES 3 1 10953U 78062A 09003.99759380 -.00000122 00000-0 10000-3 0 3559 2 10953 014.3027 001.4071 0003139 285.3533 074.6347 01.00272917 65028 GOES 6 1 14050U 83041A 09005.02186532 -.00000181 +00000-0 +10000-3 0 01130 2 14050 013.1421 020.7535 0002429 250.9695 109.0272 01.00321445152176 GOES 7 1 17561U 87022A 09006.48759076 .00000068 00000-0 10000-3 0 7682 2 17561 011.8088 038.8507 0002578 174.2377 252.1929 01.00282045 63294 GOES 8 1 23051U 94022A 09004.76673936 .00000086 00000-0 10000-3 0 6296 2 23051 005.3357 075.9774 0009560 174.9235 184.9549 00.98903433 61103 GOES 9 1 23581U 95025A 09004.86803042 -.00000091 00000-0 10000-3 0 9056 2 23581 004.8989 072.6280 0003558 242.4847 117.3424 00.98801891 49814 GOES 10 1 24786U 97019A 09005.24698418 -.00000264 00000-0 10000-3 0 7163 2 24786 003.2242 076.6823 0004626 227.7731 189.4697 01.00260728 42872 GOES 11 1 26352U 00022A 09005.23395201 .00000109 00000-0 10000-3 0 1302 2 26352 000.0364 103.1720 0005776 160.9090 150.1820 01.00282804 31777 GOES 12 1 26871U 01031A 09005.21630139 -.00000227 00000-0 10000-3 0 8780 2 26871 000.3926 262.6262 0000540 150.4639 054.9143 01.00276217 27370 GOES 13 1 29155U 06018A 09005.23174142 -.00000069 +00000-0 +00000-0 0 05470 2 29155 000.3751 088.1055 0003799 176.8205 178.9107 01.00271512009623